Location: Errabaliem
(16.8108°N, 80.4255°E)
Time: 15:20:24
(UTC+00:00)

Cosmos 1606 - Pass Details

Date: 05 August 2024
Orbit: 446 x 461 km, 82.5° (Epoch: 11 September)

Event Time Altitude Azimuth Distance (km) Brightness Sun altitude
Rises 13:35:41 0° 359° (N) 2,442 6.4 -6.9°
Reaches altitude 10° 13:37:46 10° 2° (N) 1,567 5.4 -7.4°
Maximum altitude 13:41:09 67° 85° (E) 484 2.3 -8.2°
Drops below altitude 10° 13:44:32 10° 169° (SSE) 1,561 4.8 -8.9°
Sets 13:46:35 0° 171° (S) 2,430 5.8 -9.4°
